WJA1102 CYVR-KLAX

Flight info

Callsign WJA1102
Flight time N/A
Altitude 35000
Route SEA J5 SUMMA DCT 4230N12050W DCT FRA J7 REBRG IRNMN2
Aircraft B738/M-SDE2E3FGHIRWXY/LB1

Departure

Time 2026-05-06 03:05
Airport Vancouver International Airport (CYVR)

Arrival

Time N/A
Airport Los Angeles International Airport (KLAX)
Time Latitude Longitude Altitude Speed Heading
2026-05-06 01:49 49.19708 -123.17322 24 ft 0 kts 339°
2026-05-06 02:47 49.19706 -123.17321 24 ft 2 kts 339°
2026-05-06 02:48 49.19682 -123.17307 29 ft 4 kts 339°
2026-05-06 02:48 49.19662 -123.17295 26 ft 4 kts 358°
2026-05-06 02:48 49.19650 -123.17303 27 ft 4 kts 95°
2026-05-06 02:48 49.19656 -123.17340 24 ft 2 kts 104°
2026-05-06 02:49 49.19656 -123.17343 24 ft 1 kts 104°
2026-05-06 02:53 49.19650 -123.17298 25 ft 6 kts 99°
2026-05-06 02:53 49.19657 -123.17237 27 ft 6 kts 61°
2026-05-06 02:53 49.19689 -123.17200 27 ft 6 kts 19°
2026-05-06 02:53 49.19731 -123.17192 27 ft 6 kts
2026-05-06 02:54 49.19776 -123.17191 26 ft 6 kts
2026-05-06 02:54 49.19820 -123.17190 28 ft 6 kts 359°
2026-05-06 02:54 49.19861 -123.17205 25 ft 6 kts 334°
2026-05-06 02:54 49.19897 -123.17255 25 ft 8 kts 303°
2026-05-06 02:55 49.19914 -123.17332 25 ft 8 kts 283°
2026-05-06 02:55 49.19947 -123.17387 27 ft 7 kts 345°
2026-05-06 02:55 49.19992 -123.17419 25 ft 7 kts 307°
2026-05-06 02:55 49.20011 -123.17531 24 ft 14 kts 279°
2026-05-06 02:56 49.20027 -123.17676 24 ft 14 kts 279°
2026-05-06 02:56 49.20044 -123.17814 24 ft 13 kts 280°
2026-05-06 02:56 49.20059 -123.17948 28 ft 13 kts 280°
2026-05-06 02:56 49.20074 -123.18079 26 ft 12 kts 280°
2026-05-06 02:57 49.20088 -123.18206 26 ft 12 kts 279°
2026-05-06 02:57 49.20102 -123.18329 28 ft 12 kts 279°
2026-05-06 02:57 49.20116 -123.18450 25 ft 11 kts 279°
2026-05-06 02:57 49.20129 -123.18568 24 ft 11 kts 279°
2026-05-06 02:58 49.20142 -123.18683 24 ft 11 kts 279°
2026-05-06 02:58 49.20154 -123.18794 24 ft 10 kts 279°
2026-05-06 02:58 49.20166 -123.18902 24 ft 10 kts 279°
2026-05-06 02:58 49.20165 -123.19003 24 ft 10 kts 236°
2026-05-06 02:59 49.20101 -123.19041 25 ft 13 kts 189°
2026-05-06 02:59 49.20005 -123.19066 28 ft 14 kts 190°
2026-05-06 02:59 49.19911 -123.19090 26 ft 13 kts 189°
2026-05-06 02:59 49.19822 -123.19113 27 ft 13 kts 189°
2026-05-06 03:00 49.19735 -123.19136 26 ft 13 kts 189°
2026-05-06 03:00 49.19651 -123.19158 25 ft 12 kts 190°
2026-05-06 03:00 49.19569 -123.19181 25 ft 12 kts 190°
2026-05-06 03:00 49.19488 -123.19203 26 ft 12 kts 190°
2026-05-06 03:01 49.19410 -123.19225 26 ft 11 kts 190°
2026-05-06 03:01 49.19340 -123.19264 24 ft 11 kts 227°
2026-05-06 03:01 49.19313 -123.19383 24 ft 16 kts 259°
2026-05-06 03:01 49.19291 -123.19558 24 ft 17 kts 259°
2026-05-06 03:02 49.19271 -123.19728 24 ft 16 kts 259°
2026-05-06 03:02 49.19250 -123.19892 27 ft 15 kts 259°
2026-05-06 03:02 49.19231 -123.20050 24 ft 15 kts 259°
2026-05-06 03:02 49.19212 -123.20199 24 ft 14 kts 259°
2026-05-06 03:03 49.19196 -123.20339 24 ft 13 kts 260°
2026-05-06 03:03 49.19137 -123.20425 25 ft 12 kts 193°
2026-05-06 03:03 49.19060 -123.20449 27 ft 10 kts 189°
2026-05-06 03:03 49.18994 -123.20442 29 ft 10 kts 154°
2026-05-06 03:04 49.18961 -123.20359 24 ft 9 kts 103°
2026-05-06 03:04 49.18941 -123.20197 25 ft 30 kts 101°
2026-05-06 03:04 49.18869 -123.19538 24 ft 97 kts 99°
2026-05-06 03:04 49.18716 -123.18220 28 ft 153 kts 101°
2026-05-06 03:05 49.18495 -123.16503 457 ft 171 kts 103°
2026-05-06 03:05 49.18240 -123.14653 1143 ft 180 kts 103°
2026-05-06 03:05 49.17852 -123.12861 1958 ft 179 kts 129°
2026-05-06 03:05 49.16758 -123.11778 2301 ft 203 kts 162°
2026-05-06 03:06 49.15330 -123.11043 2517 ft 228 kts 162°
2026-05-06 03:06 49.13769 -123.10297 3003 ft 239 kts 164°
2026-05-06 03:06 49.12143 -123.09604 3584 ft 249 kts 167°
2026-05-06 03:06 49.10387 -123.08903 4009 ft 269 kts 167°
2026-05-06 03:07 49.08559 -123.08159 4788 ft 275 kts 167°
2026-05-06 03:07 49.06689 -123.07411 5553 ft 280 kts 167°
2026-05-06 03:07 49.04812 -123.06576 6382 ft 283 kts 163°
2026-05-06 03:07 49.02936 -123.05616 7167 ft 285 kts 163°
2026-05-06 03:08 49.01059 -123.04703 7931 ft 288 kts 163°
2026-05-06 03:08 48.99131 -123.03782 8687 ft 292 kts 163°
2026-05-06 03:08 48.97178 -123.02851 9449 ft 296 kts 163°
2026-05-06 03:08 48.95199 -123.01906 10183 ft 300 kts 163°
2026-05-06 03:09 48.93145 -123.00924 10479 ft 321 kts 163°
2026-05-06 03:09 48.90939 -122.99869 10676 ft 343 kts 163°
2026-05-06 03:09 48.88618 -122.98757 11138 ft 353 kts 163°
2026-05-06 03:09 48.86253 -122.97622 11777 ft 358 kts 163°
2026-05-06 03:10 48.83864 -122.96475 12453 ft 362 kts 163°
2026-05-06 03:10 48.81441 -122.95313 13066 ft 368 kts 163°
2026-05-06 03:10 48.78982 -122.94134 13668 ft 373 kts 163°
2026-05-06 03:10 48.76517 -122.92954 14257 ft 378 kts 163°
2026-05-06 03:11 48.74003 -122.91751 14866 ft 381 kts 163°
2026-05-06 03:11 48.71433 -122.90523 15487 ft 384 kts 163°
2026-05-06 03:11 48.68874 -122.89302 16089 ft 388 kts 163°
2026-05-06 03:11 48.66322 -122.88085 16669 ft 391 kts 163°
2026-05-06 03:12 48.63708 -122.86841 17259 ft 395 kts 163°
2026-05-06 03:12 48.61064 -122.85583 17839 ft 399 kts 163°
2026-05-06 03:12 48.58399 -122.84316 18399 ft 403 kts 163°
2026-05-06 03:12 48.55712 -122.83041 18928 ft 407 kts 163°
2026-05-06 03:13 48.53000 -122.81755 19444 ft 410 kts 163°
2026-05-06 03:13 48.50265 -122.80459 19984 ft 413 kts 163°
2026-05-06 03:13 48.47509 -122.79155 20485 ft 416 kts 163°
2026-05-06 03:13 48.44763 -122.77858 20969 ft 420 kts 163°
2026-05-06 03:14 48.41966 -122.76538 21462 ft 422 kts 163°
2026-05-06 03:14 48.39159 -122.75214 22036 ft 423 kts 163°
2026-05-06 03:14 48.36326 -122.73880 22448 ft 428 kts 163°
2026-05-06 03:14 48.33458 -122.72531 22855 ft 433 kts 163°
2026-05-06 03:15 48.30566 -122.71172 23315 ft 436 kts 163°
2026-05-06 03:15 48.27660 -122.69808 23777 ft 438 kts 163°
2026-05-06 03:15 48.24771 -122.68454 24150 ft 441 kts 163°
2026-05-06 03:15 48.21831 -122.67077 24528 ft 444 kts 163°
2026-05-06 03:16 48.18873 -122.65694 24897 ft 447 kts 163°
2026-05-06 03:16 48.15893 -122.64303 25252 ft 450 kts 163°
2026-05-06 03:16 48.13911 -122.63378 25467 ft 452 kts 163°
2026-05-06 03:16 48.10886 -122.61968 25811 ft 455 kts 163°
2026-05-06 03:17 48.07844 -122.60551 26168 ft 457 kts 163°
2026-05-06 03:17 48.04787 -122.59130 26521 ft 459 kts 163°
2026-05-06 03:17 48.01723 -122.57707 26851 ft 462 kts 163°
2026-05-06 03:17 47.98686 -122.56299 27162 ft 465 kts 163°
2026-05-06 03:18 47.95587 -122.54863 27517 ft 467 kts 163°
2026-05-06 03:18 47.92463 -122.53418 27794 ft 471 kts 162°
2026-05-06 03:18 47.89324 -122.51968 28098 ft 474 kts 162°
2026-05-06 03:18 47.86165 -122.50510 28423 ft 476 kts 162°
2026-05-06 03:19 47.82994 -122.49049 28741 ft 478 kts 163°
2026-05-06 03:19 47.79817 -122.47587 29042 ft 479 kts 162°
2026-05-06 03:19 47.76657 -122.46134 29398 ft 480 kts 162°
2026-05-06 03:19 47.73458 -122.44666 29686 ft 483 kts 162°
2026-05-06 03:20 47.66991 -122.41702 30165 ft 488 kts 162°
2026-05-06 03:20 47.63741 -122.40216 30411 ft 490 kts 162°
2026-05-06 03:20 47.60476 -122.38725 30724 ft 489 kts 162°
2026-05-06 03:21 47.57219 -122.37239 31091 ft 487 kts 162°
2026-05-06 03:21 47.54023 -122.35783 31439 ft 486 kts 163°
2026-05-06 03:21 47.50780 -122.34307 31752 ft 486 kts 162°
2026-05-06 03:21 47.47552 -122.32840 32023 ft 486 kts 162°
2026-05-06 03:22 47.44315 -122.31371 32314 ft 486 kts 162°
2026-05-06 03:22 47.41078 -122.29941 32641 ft 485 kts 164°
2026-05-06 03:22 47.37822 -122.28614 32957 ft 484 kts 165°
2026-05-06 03:22 47.34566 -122.27340 33240 ft 484 kts 165°
2026-05-06 03:23 47.31308 -122.26078 33520 ft 484 kts 165°
2026-05-06 03:23 47.28057 -122.24812 33790 ft 484 kts 165°
2026-05-06 03:23 47.24796 -122.23531 34017 ft 484 kts 165°
2026-05-06 03:23 47.21584 -122.22260 34238 ft 483 kts 165°
2026-05-06 03:24 47.18349 -122.20976 34557 ft 481 kts 165°
2026-05-06 03:24 47.15123 -122.19694 34842 ft 479 kts 165°
2026-05-06 03:24 47.11905 -122.18418 35044 ft 479 kts 165°
2026-05-06 03:24 47.08672 -122.17136 35057 ft 483 kts 165°
2026-05-06 03:25 47.02170 -122.14567 35057 ft 482 kts 165°
2026-05-06 03:25 46.95703 -122.12018 35059 ft 479 kts 165°
2026-05-06 03:26 46.89285 -122.09498 35067 ft 476 kts 165°
2026-05-06 03:26 46.82923 -122.07014 35061 ft 475 kts 165°
2026-05-06 03:27 46.76529 -122.04522 35048 ft 476 kts 165°
2026-05-06 03:27 46.70111 -122.02025 35054 ft 478 kts 164°
2026-05-06 03:28 46.63661 -121.99522 35043 ft 480 kts 164°
2026-05-06 03:28 46.57141 -121.97240 35035 ft 483 kts 167°
2026-05-06 03:29 46.50577 -121.95315 35051 ft 485 kts 168°
2026-05-06 03:29 46.43943 -121.93404 35036 ft 486 kts 168°
2026-05-06 03:30 46.37298 -121.91448 35029 ft 488 kts 168°
2026-05-06 03:30 46.30636 -121.89462 35029 ft 488 kts 168°
2026-05-06 03:31 46.23977 -121.87475 35022 ft 487 kts 168°
2026-05-06 03:31 46.17335 -121.85499 35012 ft 486 kts 168°
2026-05-06 03:32 46.10759 -121.83549 35017 ft 485 kts 168°
2026-05-06 03:32 46.04155 -121.81596 35011 ft 484 kts 168°
2026-05-06 03:33 45.97548 -121.79647 35000 ft 483 kts 168°
2026-05-06 03:33 45.91006 -121.77722 35027 ft 483 kts 168°
2026-05-06 03:34 45.84411 -121.75786 35020 ft 482 kts 168°
2026-05-06 03:34 45.77824 -121.73857 34996 ft 483 kts 167°
2026-05-06 03:35 45.71237 -121.71933 35009 ft 483 kts 167°
2026-05-06 03:35 45.64672 -121.70019 35007 ft 484 kts 168°
2026-05-06 03:36 45.58059 -121.68097 34999 ft 484 kts 167°
2026-05-06 03:36 45.51453 -121.66181 35012 ft 485 kts 167°
2026-05-06 03:37 45.44876 -121.64278 34999 ft 485 kts 167°
2026-05-06 03:37 45.38224 -121.62357 35023 ft 487 kts 167°
2026-05-06 03:38 45.31579 -121.60444 35012 ft 488 kts 167°
2026-05-06 03:38 45.24949 -121.58539 35004 ft 488 kts 167°
2026-05-06 03:39 45.18287 -121.56630 34990 ft 488 kts 167°
2026-05-06 03:39 45.11635 -121.54728 34992 ft 487 kts 167°
2026-05-06 03:40 45.04990 -121.52833 34977 ft 487 kts 167°
2026-05-06 03:40 44.98347 -121.50943 35009 ft 486 kts 167°
2026-05-06 03:41 44.91716 -121.49060 35000 ft 486 kts 167°
2026-05-06 03:41 44.85117 -121.47191 34983 ft 485 kts 167°
2026-05-06 03:42 44.78499 -121.45321 34995 ft 485 kts 167°
2026-05-06 03:42 44.71887 -121.43457 34982 ft 484 kts 167°
2026-05-06 03:43 44.65313 -121.41608 34982 ft 484 kts 167°
2026-05-06 03:43 44.58705 -121.39754 34982 ft 484 kts 167°
2026-05-06 03:44 44.52108 -121.37907 34985 ft 483 kts 167°
2026-05-06 03:44 44.45498 -121.36061 34981 ft 484 kts 167°
2026-05-06 03:45 44.38898 -121.34222 34978 ft 483 kts 167°
2026-05-06 03:45 44.32329 -121.32396 34976 ft 484 kts 167°
2026-05-06 03:46 44.25714 -121.30561 34990 ft 484 kts 167°
2026-05-06 03:46 44.19103 -121.28731 35012 ft 484 kts 167°
2026-05-06 03:47 44.12496 -121.26907 35025 ft 484 kts 167°
2026-05-06 03:47 44.05922 -121.25096 35019 ft 484 kts 167°
2026-05-06 03:48 43.99307 -121.23278 35015 ft 484 kts 167°
2026-05-06 03:48 43.92686 -121.21462 35016 ft 485 kts 167°
2026-05-06 03:49 43.86054 -121.19648 35002 ft 485 kts 167°
2026-05-06 03:49 43.79472 -121.17851 34998 ft 485 kts 167°
2026-05-06 03:50 43.72853 -121.16048 34998 ft 484 kts 167°
2026-05-06 03:50 43.66237 -121.14251 34991 ft 484 kts 167°
2026-05-06 03:51 43.59634 -121.12460 34993 ft 483 kts 167°
2026-05-06 03:51 43.53034 -121.10674 34998 ft 483 kts 167°
2026-05-06 03:52 43.46437 -121.08893 34993 ft 482 kts 167°
2026-05-06 03:52 43.39892 -121.07130 34991 ft 482 kts 167°
2026-05-06 03:53 43.33283 -121.05354 34976 ft 483 kts 167°
2026-05-06 03:53 43.26690 -121.03586 34989 ft 482 kts 167°
2026-05-06 03:54 43.20130 -121.01831 34982 ft 482 kts 167°
2026-05-06 03:54 43.13542 -121.00072 34987 ft 483 kts 167°
2026-05-06 03:55 43.06932 -120.98311 34986 ft 483 kts 167°
2026-05-06 03:55 43.00326 -120.96555 34983 ft 483 kts 167°
2026-05-06 03:56 42.93751 -120.94811 34986 ft 484 kts 167°
2026-05-06 03:56 42.87139 -120.93061 34979 ft 484 kts 167°
2026-05-06 03:57 42.80523 -120.91314 34985 ft 483 kts 167°
2026-05-06 03:57 42.73917 -120.89573 34986 ft 483 kts 167°
2026-05-06 03:58 42.67321 -120.87839 34994 ft 482 kts 167°
2026-05-06 03:58 42.60770 -120.86119 34983 ft 482 kts 167°
2026-05-06 03:59 42.54179 -120.84393 34989 ft 481 kts 167°
2026-05-06 03:59 42.47591 -120.82682 34986 ft 481 kts 167°
2026-05-06 04:00 42.41001 -120.81042 34980 ft 481 kts 167°
2026-05-06 04:00 42.34457 -120.79436 34990 ft 480 kts 167°
2026-05-06 04:01 42.27872 -120.77815 34983 ft 480 kts 167°
2026-05-06 04:01 42.21338 -120.76205 34990 ft 480 kts 167°
2026-05-06 04:02 42.14762 -120.74584 35010 ft 480 kts 167°
2026-05-06 04:02 42.08180 -120.72965 35002 ft 480 kts 167°
2026-05-06 04:03 42.02705 -120.71622 34998 ft 481 kts 167°
2026-05-06 04:03 41.95039 -120.69746 34986 ft 481 kts 167°
2026-05-06 04:04 41.89517 -120.68397 34968 ft 481 kts 167°
2026-05-06 04:04 41.82962 -120.66799 34976 ft 481 kts 167°
2026-05-06 04:05 41.76363 -120.65193 34958 ft 482 kts 167°
2026-05-06 04:05 41.69756 -120.63589 34954 ft 482 kts 167°
2026-05-06 04:06 41.63136 -120.61985 34963 ft 483 kts 167°
2026-05-06 04:06 41.56558 -120.60394 34955 ft 483 kts 167°
2026-05-06 04:07 41.49923 -120.58794 34950 ft 484 kts 167°
2026-05-06 04:07 41.43284 -120.57195 35042 ft 484 kts 167°
2026-05-06 04:08 41.36648 -120.55601 35028 ft 484 kts 167°
2026-05-06 04:08 41.30055 -120.54020 35020 ft 484 kts 167°
2026-05-06 04:09 41.23415 -120.52431 34987 ft 485 kts 166°
2026-05-06 04:09 41.16767 -120.50843 34954 ft 484 kts 167°
2026-05-06 04:10 41.10133 -120.49263 34958 ft 484 kts 167°
2026-05-06 04:10 41.03520 -120.47690 34948 ft 484 kts 167°
2026-05-06 04:11 40.96890 -120.46116 34941 ft 483 kts 167°
2026-05-06 04:11 40.90260 -120.44546 34940 ft 483 kts 166°
2026-05-06 04:12 40.83634 -120.42980 34935 ft 482 kts 166°
2026-05-06 04:12 40.77027 -120.41421 34921 ft 482 kts 167°
2026-05-06 04:13 40.70457 -120.39875 34929 ft 481 kts 167°
2026-05-06 04:13 40.63858 -120.38325 34954 ft 481 kts 166°
2026-05-06 04:14 40.57243 -120.36773 34962 ft 481 kts 166°
2026-05-06 04:14 40.50644 -120.35229 34977 ft 481 kts 166°
2026-05-06 04:15 40.44041 -120.33687 34988 ft 482 kts 166°
2026-05-06 04:15 40.37471 -120.32156 34980 ft 482 kts 166°
2026-05-06 04:16 40.30859 -120.30618 34971 ft 482 kts 166°
2026-05-06 04:16 40.24254 -120.29084 34954 ft 482 kts 166°
2026-05-06 04:17 40.17640 -120.27552 34925 ft 482 kts 166°
2026-05-06 04:17 40.11078 -120.26035 34915 ft 482 kts 166°
2026-05-06 04:18 40.04467 -120.24509 34906 ft 482 kts 166°
2026-05-06 04:18 39.97853 -120.22986 34925 ft 482 kts 167°
2026-05-06 04:19 39.91248 -120.21468 34920 ft 481 kts 167°
2026-05-06 04:19 39.84679 -120.19961 34947 ft 481 kts 166°
2026-05-06 04:20 39.78091 -120.18452 34943 ft 480 kts 166°
2026-05-06 04:20 39.71502 -120.16946 34924 ft 479 kts 166°
2026-05-06 04:21 39.64972 -120.15457 34933 ft 479 kts 166°
2026-05-06 04:21 39.58409 -120.13963 34945 ft 478 kts 166°
2026-05-06 04:22 39.51857 -120.12474 34937 ft 477 kts 166°
2026-05-06 04:23 39.42033 -120.10247 34962 ft 478 kts 166°
2026-05-06 04:23 39.35467 -120.08762 35108 ft 479 kts 166°
2026-05-06 04:24 39.28927 -120.07285 35108 ft 480 kts 166°
2026-05-06 04:24 39.22331 -120.05799 35097 ft 481 kts 166°
2026-05-06 04:25 39.15717 -120.04313 35068 ft 482 kts 166°
2026-05-06 04:25 39.09137 -120.02836 35053 ft 483 kts 166°
2026-05-06 04:26 39.02490 -120.01347 35018 ft 484 kts 166°
2026-05-06 04:26 38.95835 -119.99860 35110 ft 484 kts 166°
2026-05-06 04:27 38.89193 -119.98378 35109 ft 484 kts 166°
2026-05-06 04:27 38.82603 -119.96910 35112 ft 483 kts 166°
2026-05-06 04:28 38.75972 -119.95437 35102 ft 482 kts 166°
2026-05-06 04:28 38.69352 -119.93968 35066 ft 482 kts 166°
2026-05-06 04:29 38.62773 -119.92511 35019 ft 481 kts 166°
2026-05-06 04:29 38.56173 -119.91052 35019 ft 481 kts 166°
2026-05-06 04:30 38.49580 -119.89598 35024 ft 480 kts 166°
2026-05-06 04:30 38.42977 -119.88144 35025 ft 479 kts 166°
2026-05-06 04:31 38.36404 -119.86699 35037 ft 479 kts 166°
2026-05-06 04:31 38.29867 -119.85264 35035 ft 479 kts 166°
2026-05-06 04:32 38.23293 -119.83824 35047 ft 479 kts 166°
2026-05-06 04:32 38.16707 -119.82384 35058 ft 480 kts 166°
2026-05-06 04:33 38.10117 -119.80946 35046 ft 480 kts 166°
2026-05-06 04:33 38.03523 -119.79510 35040 ft 480 kts 166°
2026-05-06 04:34 37.96969 -119.78085 35058 ft 480 kts 166°
2026-05-06 04:34 37.90370 -119.76653 35061 ft 480 kts 166°
2026-05-06 04:35 37.83778 -119.75225 35051 ft 480 kts 166°
2026-05-06 04:35 37.77235 -119.73811 35084 ft 479 kts 165°
2026-05-06 04:36 37.70647 -119.72389 35066 ft 479 kts 165°
2026-05-06 04:36 37.64071 -119.70972 35061 ft 479 kts 165°
2026-05-06 04:37 37.57498 -119.69558 35062 ft 479 kts 165°
2026-05-06 04:37 37.50940 -119.68151 35078 ft 478 kts 165°
2026-05-06 04:38 37.44373 -119.66743 35063 ft 479 kts 165°
2026-05-06 04:38 37.37800 -119.65337 35084 ft 478 kts 165°
2026-05-06 04:39 37.31274 -119.63943 35068 ft 479 kts 165°
2026-05-06 04:39 37.24698 -119.62541 35069 ft 479 kts 165°
2026-05-06 04:40 37.18136 -119.61144 35085 ft 478 kts 165°
2026-05-06 04:40 37.11576 -119.59756 35068 ft 478 kts 166°
2026-05-06 04:41 37.04872 -119.59382 35072 ft 484 kts 177°
2026-05-06 04:41 36.98157 -119.59612 35071 ft 485 kts 177°
2026-05-06 04:42 36.91401 -119.59826 35070 ft 484 kts 176°
2026-05-06 04:42 36.84709 -119.59972 35068 ft 484 kts 176°
2026-05-06 04:43 36.77931 -119.60091 35073 ft 483 kts 176°
2026-05-06 04:43 36.71240 -119.60206 35070 ft 483 kts 176°
2026-05-06 04:44 36.64522 -119.60324 35064 ft 483 kts 176°
2026-05-06 04:44 36.57818 -119.60443 35065 ft 483 kts 176°
2026-05-06 04:45 36.51096 -119.60563 35078 ft 483 kts 176°
2026-05-06 04:45 36.44358 -119.60683 35078 ft 483 kts 176°
2026-05-06 04:46 36.37665 -119.60802 35077 ft 483 kts 176°
2026-05-06 04:46 36.30919 -119.60922 35089 ft 483 kts 176°
2026-05-06 04:47 36.24186 -119.61041 35077 ft 483 kts 176°
2026-05-06 04:47 36.17498 -119.61159 35079 ft 483 kts 176°
2026-05-06 04:48 36.10756 -119.61278 35082 ft 483 kts 176°
2026-05-06 04:48 36.04026 -119.61396 35061 ft 483 kts 176°
2026-05-06 04:49 35.97327 -119.61680 35034 ft 488 kts 187°
2026-05-06 04:49 35.91879 -119.63645 35054 ft 491 kts 195°
2026-05-06 04:50 35.84303 -119.66661 35055 ft 491 kts 194°
2026-05-06 04:50 35.78868 -119.68727 35049 ft 491 kts 194°
2026-05-06 04:51 35.72326 -119.71164 35046 ft 490 kts 194°
2026-05-06 04:51 35.65780 -119.73585 35071 ft 490 kts 192°
2026-05-06 04:52 35.59170 -119.75307 35062 ft 487 kts 186°
2026-05-06 04:52 35.52488 -119.76761 35058 ft 486 kts 187°
2026-05-06 04:53 35.45942 -119.78296 35036 ft 467 kts 187°
2026-05-06 04:53 35.42803 -119.79060 35054 ft 453 kts 187°
2026-05-06 04:53 35.39753 -119.79804 35039 ft 442 kts 187°
2026-05-06 04:54 35.33729 -119.81257 35072 ft 441 kts 187°
2026-05-06 04:54 35.30699 -119.81616 35028 ft 432 kts 167°
2026-05-06 04:54 35.27866 -119.80855 35087 ft 417 kts 152°
2026-05-06 04:54 35.25338 -119.79253 35073 ft 402 kts 136°
2026-05-06 04:55 35.23104 -119.77205 35074 ft 400 kts 134°
2026-05-06 04:55 35.18693 -119.72982 35075 ft 404 kts 134°
2026-05-06 04:56 35.14258 -119.68772 35069 ft 407 kts 134°
2026-05-06 04:56 35.09733 -119.64537 35067 ft 409 kts 134°
2026-05-06 04:57 35.05189 -119.60311 35070 ft 410 kts 135°
2026-05-06 04:57 35.00666 -119.56111 35071 ft 411 kts 134°
2026-05-06 04:58 34.96116 -119.51889 35061 ft 410 kts 134°
2026-05-06 04:58 34.91592 -119.47699 35054 ft 406 kts 134°
2026-05-06 04:59 34.87055 -119.43605 35059 ft 404 kts 135°
2026-05-06 04:59 34.82531 -119.39578 35061 ft 402 kts 136°
2026-05-06 05:00 34.78026 -119.35555 35065 ft 401 kts 135°
2026-05-06 05:00 34.73543 -119.31562 35071 ft 402 kts 136°
2026-05-06 05:01 34.68988 -119.27588 35070 ft 403 kts 136°